Location: Dal�� Lhota
(48.7500°N, 14.0167°E)
Time: 18:34:03
(UTC+00:00)

Vanguard 3 - Pass Details

Date: 31 July 2021
Orbit: 510 x 3260 km, 33.3° (Epoch: 20 September)

Event Time Altitude Azimuth Distance (km) Brightness Sun altitude
Rises 21:30:23 0° 270° (W) 6,878 12.2 -19.6°
Reaches altitude 10° 21:35:14 10° 264° (W) 6,049 11.8 -19.9°
Maximum altitude 21:52:11 38° 206° (SSW) 4,195 10.4 -21.0°
Enters shadow 22:00:23 27° 165° (SSE) 4,486 10.2 -21.4°
Drops below altitude 10° 22:07:10 10° 146° (SE) 5,350 - -21.8°
Sets 22:11:10 0° 138° (SE) 6,040 - -21.9°
